Location: Starlight Observatory
(38.4029°N, 85.8936°W)
Time: 05:00:16
(UTC-04:00)

Amateur Radio Satellites - All Passes

Search period start: 01 November 2014 04:30
Search period end: 02 November 2014 03:30
Location: Starlight Observatory, 38.4029°N, 85.8936°W

Satellite Date Start Highest point End Downlink Frequencies (MHz)
Time Altitude Azimuth
RS-15 01 Nov 04:38:41 04:47:08 24° 29° (NNE) 04:55:45 29.354 - 29.394 USB, Beacon 29.352 USB
PANSAT 01 Nov 04:46:10 04:48:11 14° 168° (SSE) 04:50:13 not established
AO-27 01 Nov 04:51:06 04:55:49 35° 291° (WNW) 05:00:30 436.795 MHz FM
Oscar 16 01 Nov 05:02:54 05:04:32 12° 300° (WNW) 05:06:11 437.025 USB, Beacon 2401.1428
Gurwin Techsat 1B 01 Nov 05:09:54 05:14:56 44° 289° (WNW) 05:19:56 435.225 FM
TMSAT-1 01 Nov 05:15:45 05:20:54 53° 288° (WNW) 05:26:01 436.925 FM
Saudisat 1A 01 Nov 05:19:02 05:20:59 13° 108° (ESE) 05:22:55 436.775 MHz
OPAL 01 Nov 05:19:15 05:23:35 29° 66° (ENE) 05:27:54 ?
Sapphire 01 Nov 05:22:31 05:24:05 11° 319° (NW) 05:25:40 437.095 MHz 1200 baud AX-25 AFSK
AO-Echo 01 Nov 05:32:32 05:34:28 12° 300° (WNW) 05:36:24 ?
Uribyol 2 01 Nov 05:36:17 05:38:48 14° 299° (WNW) 05:41:18 436.500 FM
Uosat F 01 Nov 05:43:24 05:48:07 39° 98° (E) 05:52:48 435.120 FM
ITAMSAT 1 01 Nov 05:44:49 05:46:52 12° 300° (WNW) 05:48:55 435.822 SSB
JAS-2 01 Nov 05:48:42 05:54:10 20° 89° (E) 05:59:26 435.800 - 435.900 CW/SSB, 435.910 FM
AO-7 01 Nov 05:51:58 06:00:13 62° 104° (ESE) 06:08:27 29.400 - 29.500 MHz
PANSAT 01 Nov 06:24:59 06:27:42 19° 180° (S) 06:30:26 not established
Hamsat 01 Nov 06:28:45 06:31:07 15° 92° (E) 06:33:30 145.90 MHz
RS-15 01 Nov 06:50:47 07:01:59 70° 56° (NE) 07:13:38 29.354 - 29.394 USB, Beacon 29.352 USB
Saudisat 1A 01 Nov 06:55:42 07:00:01 59° 304° (WNW) 07:04:22 436.775 MHz
OPAL 01 Nov 06:57:50 07:02:21 32° 261° (W) 07:06:51 ?
STRAND 1 01 Nov 07:16:07 07:20:58 44° 71° (ENE) 07:25:51 ?
Uosat F 01 Nov 07:22:43 07:26:39 23° 294° (WNW) 07:30:33 435.120 FM
JAS-2 01 Nov 07:31:57 07:39:51 79° 286° (WNW) 07:47:24 435.800 - 435.900 CW/SSB, 435.910 FM
AO-7 01 Nov 07:45:35 07:52:27 30° 302° (WNW) 07:59:20 29.400 - 29.500 MHz
Hamsat 01 Nov 08:03:15 08:07:14 42° 287° (WNW) 08:11:15 145.90 MHz
PANSAT 01 Nov 08:05:17 08:07:13 13° 193° (SSW) 08:09:07 not established
SO-67 01 Nov 08:21:10 08:24:19 32° 97° (E) 08:27:26 435.3500 MHz FM
STRAND 1 01 Nov 08:56:34 09:00:19 20° 266° (W) 09:04:06 ?
RS-15 01 Nov 09:04:09 09:13:30 32° 255° (WSW) 09:23:14 29.354 - 29.394 USB, Beacon 29.352 USB
MaSat-1 01 Nov 09:08:32 09:10:27 21° 252° (WSW) 09:12:19 437.345 MHz
JAS-2 01 Nov 09:19:09 09:23:35 17° 304° (NW) 09:27:58 435.800 - 435.900 CW/SSB, 435.910 FM
HO-68 01 Nov 09:21:47 09:26:12 17° 91° (E) 09:30:35 435.675 MHz FM
ISS 01 Nov 09:50:00 09:52:39 22° 132° (SE) 09:55:18 145.800 FM
SO-67 01 Nov 09:55:26 09:56:57 12° 292° (WNW) 09:58:27 435.3500 MHz FM
UKube-1 01 Nov 10:15:50 10:17:06 11° 91° (E) 10:18:21 145.840 MHz, 145.915 MHz
Sapphire 01 Nov 10:42:42 10:44:42 12° 41° (NE) 10:46:42 437.095 MHz 1200 baud AX-25 AFSK
Oscar 11 01 Nov 10:47:54 10:51:33 27° 96° (E) 10:55:12 145.825 FM, Beacon 2401.500 USB
KITSAT 1 01 Nov 10:57:04 11:04:32 43° 109° (ESE) 11:12:00 435.175 FM
SO-50 01 Nov 10:58:38 11:02:07 23° 111° (ESE) 11:05:41 436.795 FM
PCSat 01 Nov 11:03:03 11:06:44 18° 47° (NE) 11:10:24 145.825 MHz
HO-68 01 Nov 11:07:22 11:14:35 80° 288° (WNW) 11:21:44 435.675 MHz FM
FUNcube-1 01 Nov 11:07:38 11:10:25 17° 93° (E) 11:13:11 145.950 - 145.970 MHz USB
ISS 01 Nov 11:26:06 11:29:11 36° 327° (NNW) 11:32:18 145.800 FM
UKube-1 01 Nov 11:49:20 11:53:38 59° 286° (WNW) 11:57:54 145.840 MHz, 145.915 MHz
ZACube-1 01 Nov 12:00:09 12:04:21 76° 102° (ESE) 12:08:28 437.345 MHz
Sapphire 01 Nov 12:23:40 12:29:07 71° 61° (ENE) 12:34:31 437.095 MHz 1200 baud AX-25 AFSK
Oscar 11 01 Nov 12:24:08 12:27:37 24° 291° (WNW) 12:31:05 145.825 FM, Beacon 2401.500 USB
SO-50 01 Nov 12:38:16 12:42:25 36° 308° (NW) 12:46:43 436.795 FM
FUNcube-1 01 Nov 12:43:08 12:46:54 33° 289° (WNW) 12:50:37 145.950 - 145.970 MHz USB
PCSat 01 Nov 12:45:17 12:50:41 70° 245° (WSW) 12:56:03 145.825 MHz
KITSAT 1 01 Nov 12:52:18 12:59:53 43° 308° (NW) 13:07:31 435.175 FM
HO-68 01 Nov 12:57:29 13:01:09 15° 306° (NW) 13:04:48 435.675 MHz FM
Oscar 16 01 Nov 13:00:38 13:02:44 13° 61° (ENE) 13:04:49 437.025 USB, Beacon 2401.1428
JAS-1B 01 Nov 13:04:35 13:07:31 14° 59° (ENE) 13:10:27 435.800 - 435.900 CW/SSB
ISS 01 Nov 13:05:42 13:06:39 11° 347° (NNW) 13:07:36 145.800 FM
UOSAT-12 01 Nov 13:15:59 13:20:28 54° 117° (ESE) 13:25:04 437.025 FM, 437.400 FM
AO-Echo 01 Nov 13:28:04 13:29:27 11° 60° (ENE) 13:30:51 ?
Uribyol 2 01 Nov 13:35:56 13:37:37 12° 60° (ENE) 13:39:17 436.500 FM
ITAMSAT 1 01 Nov 13:43:29 13:45:47 13° 61° (ENE) 13:48:04 435.822 SSB
Oscar 19 01 Nov 13:49:34 13:54:13 36° 70° (ENE) 13:58:52 437.125 CW, 437.150 USB
Sapphire 01 Nov 14:09:09 14:11:52 14° 257° (WSW) 14:14:34 437.095 MHz 1200 baud AX-25 AFSK
AO-27 01 Nov 14:28:33 14:33:14 35° 69° (ENE) 14:37:57 436.795 MHz FM
Oscar 16 01 Nov 14:36:14 14:41:23 79° 257° (WSW) 14:46:33 437.025 USB, Beacon 2401.1428
Gurwin Techsat 1B 01 Nov 14:50:22 14:54:53 30° 68° (ENE) 14:59:26 435.225 FM
JAS-1B 01 Nov 14:51:47 14:57:32 69° 257° (WSW) 15:03:14 435.800 - 435.900 CW/SSB
KITSAT 1 01 Nov 14:54:44 14:57:48 12° 334° (NNW) 15:00:52 435.175 FM
TMSAT-1 01 Nov 14:56:21 15:00:35 25° 66° (ENE) 15:04:50 436.925 FM
UOSAT-12 01 Nov 14:57:34 15:00:57 19° 315° (NW) 15:04:22 437.025 FM, 437.400 FM
AO-7 01 Nov 15:01:37 15:05:55 15° 50° (NE) 15:10:12 29.400 - 29.500 MHz
AO-Echo 01 Nov 15:02:23 15:07:23 87° 257° (WSW) 15:12:34 ?
Uribyol 2 01 Nov 15:11:04 15:16:18 87° 256° (WSW) 15:21:34 436.500 FM
ITAMSAT 1 01 Nov 15:19:21 15:24:34 78° 257° (WSW) 15:29:49 435.822 SSB
Saudisat 1A 01 Nov 15:23:36 15:28:02 70° 57° (ENE) 15:32:25 436.775 MHz
Oscar 19 01 Nov 15:29:26 15:33:36 25° 265° (W) 15:37:47 437.125 CW, 437.150 USB
AO-27 01 Nov 16:08:25 16:12:45 26° 264° (W) 16:17:08 436.795 MHz FM
ISS 01 Nov 16:19:36 16:22:19 23° 27° (NNE) 16:25:02 145.800 FM
Gurwin Techsat 1B 01 Nov 16:30:01 16:34:44 32° 263° (W) 16:39:29 435.225 FM
TMSAT-1 01 Nov 16:35:21 16:40:16 39° 262° (W) 16:45:13 436.925 FM
AO-7 01 Nov 16:49:03 16:57:15 72° 69° (ENE) 17:05:30 29.400 - 29.500 MHz
Uosat F 01 Nov 16:55:08 16:59:55 46° 71° (ENE) 17:04:44 435.120 FM
Saudisat 1A 01 Nov 17:05:56 17:06:59 11° 253° (WSW) 17:08:02 436.775 MHz
JAS-2 01 Nov 17:42:08 17:48:00 41° 67° (ENE) 17:54:35 435.800 - 435.900 CW/SSB, 435.910 FM
ISS 01 Nov 17:55:56 17:59:09 45° 224° (SW) 18:02:21 145.800 FM
Uosat F 01 Nov 18:35:26 18:38:54 19° 267° (W) 18:42:23 435.120 FM
AO-7 01 Nov 18:44:31 18:50:39 23° 266° (W) 18:56:50 29.400 - 29.500 MHz
KITSAT 1 01 Nov 18:52:09 18:57:40 19° 37° (NE) 19:03:09 435.175 FM
Hamsat 01 Nov 18:54:35 18:58:45 74° 259° (W) 19:02:56 145.90 MHz
OPAL 01 Nov 19:08:27 19:13:24 75° 105° (ESE) 19:18:21 ?
JAS-2 01 Nov 19:27:33 19:33:06 33° 267° (W) 19:39:19 435.800 - 435.900 CW/SSB, 435.910 FM
STRAND 1 01 Nov 19:29:25 19:32:39 17° 92° (E) 19:35:52 ?
SO-50 01 Nov 19:31:10 19:34:33 18° 45° (NE) 19:37:56 436.795 FM
HO-68 01 Nov 19:51:51 19:54:25 12° 52° (NE) 19:56:58 435.675 MHz FM
AO-40 01 Nov 20:14:45 22:48:58 37° 202° (SSW) 02:54:41 Beacon 2401.320
SO-67 01 Nov 20:24:35 20:27:53 45° 261° (W) 20:31:12 435.3500 MHz FM
KITSAT 1 01 Nov 20:46:25 20:54:31 74° 59° (ENE) 21:02:34 435.175 FM
OPAL 01 Nov 20:49:34 20:51:38 13° 301° (WNW) 20:53:43 ?
STRAND 1 01 Nov 21:07:08 21:12:08 53° 288° (WNW) 21:17:06 ?
SO-50 01 Nov 21:10:42 21:15:31 63° 242° (WSW) 21:20:20 436.795 FM
RS-15 01 Nov 21:12:33 21:23:00 51° 111° (ESE) 21:33:19 29.354 - 29.394 USB, Beacon 29.352 USB
HO-68 01 Nov 21:33:42 21:40:47 68° 71° (ENE) 21:47:54 435.675 MHz FM
Oscar 11 01 Nov 21:42:12 21:45:11 19° 67° (ENE) 21:48:09 145.825 FM, Beacon 2401.500 USB
UOSAT-12 01 Nov 21:47:12 21:51:26 32° 51° (NE) 21:55:36 437.025 FM, 437.400 FM
FUNcube-1 01 Nov 22:03:21 22:05:39 14° 65° (ENE) 22:07:57 145.950 - 145.970 MHz USB
MaSat-1 01 Nov 22:40:25 22:44:20 81° 113° (ESE) 22:47:52 437.345 MHz
UKube-1 01 Nov 22:42:53 22:47:14 83° 257° (WSW) 22:51:37 145.840 MHz, 145.915 MHz
KITSAT 1 01 Nov 22:43:18 22:49:04 22° 257° (WSW) 22:54:50 435.175 FM
ZACube-1 01 Nov 22:54:42 22:59:05 50° 74° (ENE) 23:03:23 437.345 MHz
Oscar 11 01 Nov 23:17:06 23:21:05 36° 262° (W) 23:25:04 145.825 FM, Beacon 2401.500 USB
HO-68 01 Nov 23:23:50 23:28:59 21° 267° (W) 23:34:10 435.675 MHz FM
RS-15 01 Nov 23:25:01 23:35:24 46° 313° (NW) 23:45:51 29.354 - 29.394 USB, Beacon 29.352 USB
UOSAT-12 01 Nov 23:27:29 23:31:29 28° 248° (WSW) 23:35:24 437.025 FM, 437.400 FM
FUNcube-1 01 Nov 23:37:09 23:41:35 54° 260° (W) 23:45:56 145.950 - 145.970 MHz USB
ZACube-1 02 Nov 00:33:24 00:35:42 14° 268° (W) 00:37:59 437.345 MHz
Sapphire 02 Nov 01:26:06 01:26:34 10° 101° (E) 01:27:02 437.095 MHz 1200 baud AX-25 AFSK
PCSat 02 Nov 01:44:06 01:47:45 19° 105° (ESE) 01:51:24 145.825 MHz
RS-15 02 Nov 01:44:43 01:51:37 18° 344° (NNW) 01:58:36 29.354 - 29.394 USB, Beacon 29.352 USB
Oscar 19 02 Nov 01:04:07 01:06:41 14° 91° (E) 01:09:15 437.125 CW, 437.150 USB
JAS-1B 02 Nov 01:35:01 01:41:56 39° 99° (E) 01:49:58 435.800 - 435.900 CW/SSB
AO-27 02 Nov 01:44:38 01:47:12 14° 91° (E) 01:49:45 436.795 MHz FM
Oscar 16 02 Nov 01:49:39 01:54:29 41° 99° (E) 01:59:18 437.025 USB, Beacon 2401.1428
Sapphire 02 Nov 02:03:43 02:09:08 90° 116° (ESE) 02:14:35 437.095 MHz 1200 baud AX-25 AFSK
Gurwin Techsat 1B 02 Nov 02:09:40 02:11:54 13° 90° (E) 02:14:06 435.225 FM
AO-Echo 02 Nov 02:11:25 02:16:18 36° 97° (E) 02:21:04 ?
PCSat 02 Nov 02:25:23 02:30:40 55° 301° (WNW) 02:36:00 145.825 MHz
Uribyol 2 02 Nov 02:25:41 02:30:30 37° 98° (E) 02:35:15 436.500 FM
ITAMSAT 1 02 Nov 02:34:00 02:38:57 42° 99° (E) 02:43:51 435.822 SSB
Oscar 19 02 Nov 02:41:22 02:46:26 63° 286° (WNW) 02:51:29 437.125 CW, 437.150 USB
RS-15 02 Nov 03:02:30 03:10:08 20° 22° (NNE) 03:17:54 29.354 - 29.394 USB, Beacon 29.352 USB
PANSAT 02 Nov 03:20:28 03:22:35 14° 168° (SSE) 03:24:41 not established
